OpenBCM V2.0.2 (Linux)

Packet Radio Mailbox

IZ3LSV

[San Dona' di P. JN]

 Login: GUEST





  
CX2SA  > KEP      13.05.20 00:30l 86 Lines 3604 Bytes #999 (0) @ ARL
BID : ARLK038
Read: GUEST
Subj: ARLK038 Keplerian data
Path: IZ3LSV<IQ5KG<IK1NHL<CX2SA
Sent: 200512/2215Z @:CX2SA.SAL.URY.SOAM #:31207 [Salto] FBB7.00e $:ARLK038
From: CX2SA@CX2SA.SAL.URY.SOAM
To  : KEP@ARL


ZCZC SK38
QST de W1AW
Keplerian Bulletin 38  ARLK038
From ARRL Headquarters
Newington, CT  May 12, 2020
To all radio amateurs

SB KEP ARL ARLK038
ARLK038 Keplerian data

Special thanks to AMSAT-NA (AMSAT.ORG) for the following Keplerian
data.

Decode 2-line elsets with the following key:
1 AAAAAU 00  0  0 BBBBB.BBBBBBBB  .CCCCCCCC  00000-0  00000-0 0  DDDZ
2 AAAAA EEE.EEEE FFF.FFFF GGGGGGG HHH.HHHH III.IIII JJ.JJJJJJJJKKKKKZ
KEY: A-CATALOGNUM B-EPOCHTIME C-DECAY D-ELSETNUM E-INCLINATION F-RAAN
G-ECCENTRICITY H-ARGPERIGEE I-MNANOM J-MNMOTION K-ORBITNUM Z-CHECKSUM

0 AO-07
1 7530U 74089B   20133.17105625 -.00000035 +00000-0 +62703-4 0  9990
2 7530 101.7971 103.1187 0012632 074.1478 354.5358 12.53643320081448
0 FO-29
1 24278U 96046B   20133.30601086 -.00000009  00000-0  23692-4 0  9997
2 24278  98.5789 247.8809 0351355 108.4338 255.5330 13.53097921172247
0 ISS
1 25544U 98067A   20133.57108895  .00000512  00000-0  17238-4 0  9995
2 25544  51.6438 164.7478 0001013 286.6834 213.3216 15.49364633226493
0 SO-50
1 27607U 02058C   20133.44935103 -.00000045  00000-0  14286-4 0  9990
2 27607  64.5537 124.4476 0052490 186.9975 173.0402 14.75632520935545
0 CO-55
1 27844U 03031E   20132.99026253 +.00000038 +00000-0 +36971-4 0  9997
2 27844 098.6827 141.2750 0010382 154.7148 205.4540 14.22236510874916
0 RS-22
1 27939U 03042A   20133.43780478  .00000125  00000-0  30972-4 0  9992
2 27939  98.0849 268.7477 0014347 105.7691 254.5105 14.66858315888732
0 RS-30
1 32953U 08025A   20133.25982011  .00000037  00000-0  19437-3 0  9991
2 32953  82.4992 300.4167 0019902 131.3574 228.9222 12.43095634543134
0 KKS-1
1 33499U 09002H   20133.17085868 +.00000055 +00000-0 +16169-4 0  9998
2 33499 098.3213 346.8907 0007941 236.5749 123.4700 14.75528410607232
0 AO-71
1 37854U 11061E   20133.18664853 +.00000989 +00000-0 +57359-4 0  9995
2 37854 101.6998 205.7340 0158762 169.6210 190.8346 15.07198210466010
0 AO-73
1 39444U 13066AE  20133.51390013  .00000229  00000-0  34323-4 0  9993
2 39444  97.5594 135.7475 0058774  29.5789 330.8728 14.82113790348639
0 UKUBE 1
1 40074U 14037F   20133.43483516  .00000242  00000-0  36084-4 0  9996
2 40074  98.4539 319.6275 0003413 231.3577 128.7326 14.84250132316411
0 XW-2A
1 40903U 15049E   20133.52228360  .00001655  00000-0  39440-4 0  9993
2 40903  97.2908 182.4442 0014550  39.7728  96.1981 15.42979401260935
0 XW-2F
1 40910U 15049M   20133.44536818  .00000751  00000-0  40327-4 0  9994
2 40910  97.4679 137.5496 0015920 122.2468  21.1689 15.17884053256872
0 XW-2B
1 40911U 15049N   20133.52550659  .00000638  00000-0  36417-4 0  9992
2 40911  97.4757 135.8011 0015106 131.6590 345.1681 15.16194918256728
0 IO-86
1 40931U 15052B   20133.41684711  .00000930  00000-0  40458-4 0  9998
2 40931   5.9944 232.3968 0012943 133.2354 226.9691 14.76636050249922
0 CAS-4B
1 42759U 17034B   20133.50100403  .00000114  00000-0  20418-4 0  9999
2 42759  43.0182 224.5862 0010392 171.2118 301.1367 15.09810743160536
0 CAS-4A
1 42761U 17034D   20133.43638694  .00000209  00000-0  26140-4 0  9995
2 42761  43.0187 224.2594 0010506 170.5315 243.0899 15.09889950160520
0 AO-91
1 43017U 17073E   20133.32754326  .00000246  00000-0  24512-4 0  9994
2 43017  97.7243  46.9577 0257323 167.7507 193.0125 14.78902012133824
0 AO-92
1 43137U 18004AC  20133.17699611 +.00000766 +00000-0 +34513-4 0  9999
2 43137 097.4473 204.5810 0009318 172.8929 187.2442 15.24059742129529

Keplerian bulletins are transmitted twice weekly from W1AW.  The
next scheduled transmission of these data will be Friday, May 15,
2020, at 2230z on Baudot and BPSK31.
NNNN


Read previous mail | Read next mail


 01.05.2026 23:22:07lGo back Go up